Simultaneous Nadir Overpasses (SNOs) Predictions

Prediction of SNOs between LANDSAT-8 and NOAA-19 Satellite Orbit:

Table of predicted SNOs for the next 14.0 days since TLE Epoch: 4/14/2018
Index Date (LANDSAT-8) Time (LANDSAT-8) Lat,Lon (LANDSAT-8) SZA (LANDSAT-8 ) Date (NOAA-19) Time (NOAA-19) Lat,Lon (NOAA-19) SZA (NOAA-19 ) Distance(km) Time Diff (sec)
1 04/15/2018 13:30:53 -77.43, 170.10 112.19 04/15/2018 13:30:49 -77.43, 170.15 112.18 1.28 4
2 04/17/2018 19:04:35 77.42, -93.35 67.03 04/17/2018 19:04:32 77.44, -93.25 67.05 3.23 3
3 04/17/2018 19:54:12 -76.97, 72.56 113.51 04/17/2018 19:55:16 -76.97, 76.24 113.30 92.31 64
4 04/20/2018 00:38:18 -77.44, 3.28 113.73 04/20/2018 00:38:05 -77.45, 3.36 113.71 2.72 13
5 04/22/2018 06:11:59 77.47, 99.97 65.56 04/22/2018 06:11:47 77.46, 99.97 65.56 0.60 12
6 04/22/2018 07:01:28 -77.40, -92.69 114.54 04/22/2018 07:02:41 -77.37, -92.28 114.53 10.36 73
7 04/24/2018 11:45:42 -77.49,-163.40 115.16 04/24/2018 11:45:21 -77.49,-163.47 115.16 1.81 21
8 04/24/2018 12:35:10 77.37, 3.80 64.71 04/24/2018 12:36:22 77.36, 4.42 64.74 15.17 72
9 04/26/2018 17:19:23 77.51, -66.74 64.16 04/26/2018 17:19:02 77.50, -66.89 64.14 3.64 21




NCC Satellite Simultaneous Nadir Overpasses (SNOs) Prediction Service
